OE6ATD-13 Weather Reports


time (UTC)temp
C
wind
direction
speed
KPH
gust
KPH
rain 1hr
cm
rain 24hr
cm
rain mn
cm
humidity
%
barometer
mb
20260506140515 21 225 9.7 16.1 0.00 0.00 0.00 50 1008.5
20260506135527 22 257 4.8 14.5 0.00 0.00 0.00 47 1008.5
20260506134521 22 248 11.3 30.6 0.00 0.00 0.00 45 1008.4
20260506133517 22 295 6.4 19.3 0.00 0.00 0.00 44 1008.4
20260506132528 22 282 3.2 9.7 0.00 0.00 0.00 43 1008.3
20260506131523 23 261 4.8 14.5 0.00 0.00 0.00 42 1008.4
20260506130520 23 299 9.7 19.3 0.00 0.00 0.00 42 1008.4
20260506125515 23 255 8.0 19.3 0.00 0.00 0.00 42 1008.4
20260506124525 23 308 8.0 17.7 0.00 0.00 0.00 42 1008.5
20260506123521 23 270 9.7 19.3 0.00 0.00 0.00 41 1008.5
20260506122516 23 256 8.0 16.1 0.00 0.00 0.00 42 1008.5
20260506121527 23 267 6.4 16.1 0.00 0.00 0.00 40 1008.6
20260506120523 24 315 9.7 14.5 0.00 0.00 0.00 40 1008.7
20260506115519 24 204 8.0 19.3 0.00 0.00 0.00 41 1008.6
20260506114530 23 216 6.4 19.3 0.00 0.00 0.00 42 1008.6
20260506113525 22 234 11.3 19.3 0.00 0.00 0.00 44 1008.5
20260506112522 21 237 4.8 9.7 0.00 0.00 0.00 50 1008.7
20260506111517 21 262 3.2 14.5 0.00 0.00 0.00 50 1009.0
20260506110528 21 304 6.4 14.5 0.00 0.00 0.00 51 1009.1
20260506105524 21 237 4.8 14.5 0.00 0.00 0.00 51 1009.2
20260506104526 21 232 1.6 8.0 0.00 0.00 0.00 51 1009.3
20260506103522 20 271 3.2 12.9 0.00 0.00 0.00 51 1009.3
20260506102518 20 257 6.4 14.5 0.00 0.00 0.00 51 1009.5
20260506101529 20 229 8.0 17.7 0.00 0.00 0.00 51 1009.5
20260506100525 20 315 3.2 4.8 0.00 0.00 0.00 51 1009.6
20260506095520 21 221 1.6 11.3 0.00 0.00 0.00 50 1009.6
20260506094523 20 275 3.2 14.5 0.00 0.00 0.00 50 1009.6
20260506093519 22 288 6.4 17.7 0.00 0.00 0.00 44 1009.4
20260506092529 23 296 3.2 12.9 0.00 0.00 0.00 42 1009.3
20260506091525 23 268 1.6 9.7 0.00 0.00 0.00 41 1009.2
20260506090521 23 339 1.6 6.4 0.00 0.00 0.00 41 1009.2
20260506085517 23 217 3.2 9.7 0.00 0.00 0.00 39 1009.1
20260506084528 22 317 3.2 12.9 0.00 0.00 0.00 39 1009.0
20260506083524 22 302 3.2 8.0 0.00 0.00 0.00 38 1009.0
20260506082520 22 289 3.2 8.0 0.00 0.00 0.00 37 1009.1
20260506081516 22 268 3.2 16.1 0.00 0.00 0.00 40 1009.2
20260506080527 22 277 4.8 14.5 0.00 0.00 0.00 40 1009.0
20260506073520 22 260 1.6 9.7 0.00 0.00 0.00 41 1009.0
20260506072516 21 315 0.0 4.8 0.00 0.00 0.00 47 1009.0
20260506071527 21 293 0.0 3.2 0.00 0.00 0.00 47 1008.7
20260506070522 21 255 1.6 8.0 0.00 0.00 0.00 46 1008.9
20260506061521 20 293 0.0 6.4 0.00 0.00 0.00 53 1009.1
20260506060517 19 0.0 1.6 0.00 0.00 0.00 56 1009.1
20260506050522 16 0.0 0.0 0.00 0.00 0.00 73 1009.1
20260506044520 12 0.0 1.6 0.00 0.00 0.00 80 1008.9
20260506043516 12 0.0 0.0 0.00 0.00 0.00 80 1008.9
20260506042527 12 0.0 0.0 0.00 0.00 0.00 82 1008.7
20260506041522 11 205 0.0 1.6 0.00 0.00 0.00 82 1008.7
20260506040518 11 0.0 0.0 0.00 0.00 0.00 81 1008.9
20260506035529 11 0.0 0.0 0.00 0.00 0.00 80 1008.8
20260506034515 11 0.0 0.0 0.00 0.00 0.00 78 1008.8
20260506033526 12 0.0 0.0 0.00 0.00 0.00 72 1008.6
20260506032522 13 0.0 0.0 0.00 0.00 0.00 71 1008.7
20260506031518 13 0.0 0.0 0.00 0.00 0.00 71 1008.7
20260506030529 14 0.0 0.0 0.00 0.00 0.00 70 1008.8
20260506025525 14 180 0.0 1.6 0.00 0.00 0.00 70 1008.7
20260506024520 14 0.0 0.0 0.00 0.00 0.00 70 1008.6
20260506023516 14 0.0 0.0 0.00 0.00 0.00 70 1008.7
20260506022527 15 180 0.0 3.2 0.00 0.00 0.00 70 1008.8
20260506021523 15 225 0.0 4.8 0.00 0.00 0.00 69 1008.6
20260506020519 15 270 0.0 4.8 0.00 0.00 0.00 69 1008.5
20260506015529 15 180 0.0 1.6 0.00 0.00 0.00 69 1008.6
20260506014525 15 211 0.0 4.8 0.00 0.00 0.00 69 1008.4
20260506013521 15 0.0 0.0 0.00 0.00 0.00 68 1008.4
20260506012516 15 0.0 3.2 0.00 0.00 0.00 67 1008.3
20260506011519 15 315 0.0 3.2 0.00 0.00 0.00 67 1008.3
20260506010529 15 315 4.8 8.0 0.00 0.00 0.00 68 1008.3
20260506005525 15 234 0.0 4.8 0.00 0.00 0.00 69 1008.2
20260506004521 15 0.0 1.6 0.00 0.00 0.00 68 1008.3
20260506003517 15 270 0.0 9.7 0.00 0.00 0.00 68 1008.2
20260506002528 15 203 0.0 4.8 0.00 0.00 0.00 68 1008.3
20260506001523 15 229 1.6 11.3 0.00 0.00 0.00 68 1008.3
20260506000520 15 315 1.6 4.8 0.00 0.00 0.00 68 1008.4
20260505235516 15 235 0.0 4.8 0.00 0.00 0.00 68 1008.4
20260505234526 15 179 1.6 6.4 0.00 0.00 0.00 69 1008.4
20260505233522 15 190 1.6 6.4 0.00 0.00 0.00 69 1008.6
20260505232518 15 175 4.8 8.0 0.00 0.00 0.00 69 1008.5
20260505231529 15 171 1.6 9.7 0.00 0.00 0.00 69 1008.6
20260505230525 15 214 3.2 8.0 0.00 0.00 0.00 69 1008.6
20260505225520 15 183 3.2 9.7 0.00 0.00 0.00 69 1008.6
20260505224517 15 205 1.6 9.7 0.00 0.00 0.00 69 1008.6
20260505223527 15 209 0.0 8.0 0.00 0.00 0.00 69 1008.5
20260505222523 15 217 4.8 9.7 0.00 0.00 0.00 69 1008.6
20260505221519 15 228 4.8 14.5 0.00 0.00 0.00 70 1008.6
20260505220530 15 219 4.8 11.3 0.00 0.00 0.00 70 1008.6
20260505215525 15 223 3.2 9.7 0.00 0.00 0.00 70 1008.5
20260505214521 15 253 1.6 6.4 0.00 0.00 0.00 70 1008.9
20260505213517 15 152 1.6 4.8 0.00 0.00 0.00 70 1008.8
20260505212528 15 242 1.6 11.3 0.00 0.00 0.00 70 1008.8
20260505211524 15 167 1.6 6.4 0.00 0.00 0.00 70 1008.8
20260505210526 15 248 0.0 4.8 0.00 0.00 0.00 70 1008.8
20260505205521 15 236 0.0 3.2 0.00 0.00 0.00 70 1008.9
20260505204517 15 270 0.0 8.0 0.00 0.00 0.00 69 1009.1
20260505203528 15 227 1.6 8.0 0.00 0.00 0.00 70 1009.2
20260505202524 15 95 0.0 3.2 0.00 0.00 0.00 70 1009.2
20260505201519 15 135 0.0 1.6 0.00 0.00 0.00 69 1009.3
20260505200515 15 184 0.0 4.8 0.00 0.00 0.00 68 1009.2
20260505195526 15 171 0.0 3.2 0.00 0.00 0.00 67 1009.2
20260505194521 15 0.0 0.0 0.00 0.00 0.00 66 1009.2
20260505193517 16 218 3.2 9.7 0.00 0.00 0.00 65 1009.1
20260505192528 16 202 0.0 6.4 0.00 0.00 0.00 64 1009.2
20260505191524 16 211 1.6 9.7 0.00 0.00 0.00 64 1009.2
20260505190520 16 207 1.6 11.3 0.00 0.00 0.00 63 1009.2
20260505185515 16 212 4.8 11.3 0.00 0.00 0.00 63 1009.3
20260505184526 16 221 4.8 8.0 0.00 0.00 0.00 62 1009.2
20260505183529 16 274 4.8 14.5 0.00 0.00 0.00 62 1009.2
20260505182524 16 273 4.8 11.3 0.00 0.00 0.00 61 1009.3
20260505181520 16 220 4.8 14.5 0.00 0.00 0.00 61 1009.3
20260505180516 17 182 0.0 3.2 0.00 0.00 0.00 59 1009.4
20260505175527 17 240 1.6 8.0 0.00 0.00 0.00 55 1009.4
20260505174523 17 286 3.2 8.0 0.00 0.00 0.00 54 1009.3
20260505173519 18 246 1.6 11.3 0.00 0.00 0.00 53 1009.5
20260505172529 18 251 4.8 14.5 0.00 0.00 0.00 52 1009.5
20260505171525 18 206 1.6 4.8 0.00 0.00 0.00 51 1009.6
20260505170521 20 261 3.2 9.7 0.00 0.00 0.00 49 1009.6
20260505165517 21 280 3.2 9.7 0.00 0.00 0.00 48 1009.6
20260505164528 21 288 3.2 6.4 0.00 0.00 0.00 47 1009.6
20260505163523 21 234 3.2 14.5 0.00 0.00 0.00 46 1009.7
20260505162519 21 252 1.6 9.7 0.00 0.00 0.00 47 1009.8
20260505161530 20 233 4.8 14.5 0.00 0.00 0.00 47 1009.9
20260505160516 20 229 1.6 9.7 0.00 0.00 0.00 47 1010.1
20260505152529 20 239 1.6 12.9 0.00 0.00 0.00 45 1010.0
20260505151525 20 223 4.8 14.5 0.00 0.00 0.00 45 1010.0
20260505150520 20 248 4.8 9.7 0.00 0.00 0.00 44 1010.2